* Astronomy

Members Login
Post Info TOPIC: NEO 2006 RZ


L

Posts: 131433
Date:
RE: NEO 2006 RZ
Permalink  
 


See more

__________________


L

Posts: 131433
Date:
Permalink  
 

Orbital elements: 2006 RZ
                                        PHA, Earth MOID = 0.0124 AU
Epoch 2006 Sept. 22.0 TT = JDT 2454000.5 MPC
M 347.03660 (2000.0) P Q
n 0.27461034 Peri. 221.83784 +0.52028934 -0.85280217
a 2.3441827 Node 196.96677 +0.81874943 +0.51311548
e 0.6256469 Incl. 8.87619 +0.24279285 +0.09716463
P 3.59 H 20.0 G 0.15 U 8


Ephemeris:
2006 RZ                  a,e,i = 2.34, 0.63, 9                   q = 0.8776
Date TT R. A. (2000) Decl. Delta r Elong. Phase V
2006 09 02 22 28.98 +17 03.5 0.281 1.268 154.6 19.9 18.8
2006 09 12 22 22.42 +19 02.4 0.193 1.182 152.7 23.0 17.9
2006 09 22 22 11.13 +21 44.0 0.113 1.099 146.2 30.5 16.8
2006 10 02 21 26.81 +31 37.3 0.0368 1.024 128.3 50.1 14.7
2006 10 12 11 08.47 -04 41.3 0.0438 0.960 29.8 148.9 21.3


Source

__________________
Page 1 of 1  sorted by
Quick Reply

Please log in to post quick replies.



Create your own FREE Forum
Report Abuse
Powered by ActiveBoard